Regional Weather Roundup
Issued by NWS

Home | Current Version | Previous Version | Graphics & Text | Print | Product List | Glossary On
Versions: 1 2 3 4 5 6 7 8 9 10 11 12 13 14 15 16 17 18 19 20 21 22 23 24 25 26 27 28 29 30 31 32 33 34 35 36 37 38 39 40 41 42 43 44 45 46 47 48 49 50
000
ASUS45 KBOU 060107
RWRCO

WEATHER ROUNDUP FOR COLORADO
NATIONAL WEATHER SERVICE DENVER/BOULDER CO
700 PM MDT TUE MAY 05 2015

NOTE: "FAIR" INDICATES FEW OR NO CLOUDS BELOW 12000 FEET WITH NO
SIGNIFICANT WEATHER AND/OR OBSTRUCTIONS TO VISIBILITY.

COZ001>005-013-030-031-060200-
...NORTHWEST COLORADO...

CITY           SKY/WX    TMP DP  RH WIND       PRES   REMARKS
CRAIG          CLOUDY    56  44  64 W15       29.77R
HAYDEN         CLOUDY    57  37  47 SE12      29.78R
MEEKER         CLOUDY    55  45  68 SW7       29.80S
MOUNT WERNER   NOT AVBL
STEAMBOAT SPGS CLOUDY    49  42  76 E14       29.80S
WALDEN         CLOUDY    43  37  81 W3        29.86F
$$

COZ006>008-011-060200-
...WEST CENTRAL VALLEYS...

CITY           SKY/WX    TMP DP  RH WIND       PRES   REMARKS
GRAND JUNCTION CLOUDY    55  49  80 CALM      29.78F
MONTROSE       CLOUDY    56  47  71 SE7       29.83F
EAGLE          LGT RAIN  52  48  87 W6        29.82R
RIFLE          LGT RAIN  54  48  80 W21       29.78R
DELTA          CLOUDY    57  49  74 CALM      29.81S
NUCLA          LGT RAIN  54  46  76 SW9       29.86S
$$

COZ017>023-064>068-060200-
...SOUTHWEST COLORADO...

CITY           SKY/WX    TMP DP  RH WIND       PRES   REMARKS
DURANGO        CLOUDY    49  48  97 SW10      29.89S
CORTEZ         MOSUNNY   54  49  83 SW13      29.86S
PAGOSA SPRINGS DRIZZLE   45  44  96 E3        29.93S
TELLURIDE      RAIN      41  40  93 CALM      29.96F
WOLF CREEK PAS NOT AVBL
$$

COZ009-010-012-014-032>034-037-058>063-060200-
...CENTRAL COLORADO...

CITY           SKY/WX    TMP DP  RH WIND       PRES   REMARKS
ASPEN          LGT RAIN  44  40  85 CALM      29.86S
BUENA VISTA    NOT AVBL
COPPER MTN     CLOUDY    37  32  81 S6        30.01F
BERTHOUD PASS  HAZE      28  21  74 E10       30.05S VSB<1/4 WCI  19
COTTONWOOD PAS DRZL/FOG  41  37  87 CALM      29.94F VSB 1/2
GUNNISON       CLOUDY    45  39  81 S3        29.91S
KREMMLING      CLOUDY    54  39  58 NW3       29.82R
LEADVILLE      LGT RAIN  37  36  96 S6        29.92S
MONARCH PASS   SNOW      32  30  93 MISG      30.11S VSB<1/4
SALIDA         CLOUDY    46  43  88 CALM      29.95S
SUNLIGHT       LGT RAIN  36  36 100 CALM      30.01R VSB 1/4
WILKERSON PASS MIX PCPN  32  32 100 MISG      30.01S VSB 1/2
$$

COZ069>075-060200-
...SAN LUIS VALLEY/SANGRE DE CRISTO MOUNTAINS...

CITY           SKY/WX    TMP DP  RH WIND       PRES   REMARKS
ALAMOSA        CLOUDY    49  40  71 E5        29.87R
LA VETA PASS   CLOUDY   N/A N/A N/A MISG      29.94S
SAGUACHE       RAIN      43  41  93 NW5       29.90S
$$

COZ035-036-038>040-060200-
...NORTHERN COLORADO FRONT RANGE...

CITY           SKY/WX    TMP DP  RH WIND       PRES   REMARKS
DENVER INTL AP LGT RAIN  51  49  92 NE9       29.80F
DMNS CITY PARK   N/A     51  49  95 NE5       29.80F
AURORA         NOT AVBL
FRONT RANGE AP LGT RAIN  54  50  87 N10       29.81F
ERIE MUNI ARPT CLOUDY    53  50  91 NE6       29.81F
BOULDER MUN AP DRIZZLE   52  52 100 E6        29.81F
CENTENNIAL     LGT RAIN  49  48  97 NW7       29.82S FOG
BROOMFIELD     NOT AVBL
FORT COLLINS   CLOUDY    52  48  87 E6        29.83F
LONGMONT       CLOUDY    55  52  90 NE3       29.83F
$$

COZ041-046-047-076>085-087-088-060200-
...PIKES PEAK/PALMER DIVIDE AND SOUTHERN FOOTHILLS...

CITY           SKY/WX    TMP DP  RH WIND       PRES   REMARKS
COLO. SPRINGS  CLOUDY    49  44  83 NW10      29.82F
A. F. ACADEMY  NOT AVBL
ELLICOTT       LGT RAIN N/A N/A N/A N12       29.80S
FALCON         DRIZZLE   47  44  91 NW8       29.84F
FORT CARSON    NOT AVBL
LIMON          LGT RAIN  50  49  96 W15       29.73F
MONUMENT HILL  RAIN      43  41  93 W8        29.84S
TRINIDAD       MOCLDY    56  47  71 N5        29.81R
$$

COZ042>045-048>051-090-091-060200-
...NORTHEAST COLORADO...

CITY           SKY/WX    TMP DP  RH WIND       PRES   REMARKS
GREELEY ARPT   CLOUDY    54  46  76 E10       29.82F
AKRON          LGT RAIN  53  52  96 E21G30    29.76F FOG
BURLINGTON     LGT RAIN  56  54  93 SE21      29.76S
WRAY           LGT RAIN N/A N/A N/A E16G22    29.79F
STERLING       LGT RAIN  54  54 100 E9        29.79F
HOLYOKE        NOT AVBL
FORT MORGAN    LGT RAIN  53  51  94 NE14      29.78F
$$

COZ086-089-092>099-060200-
...SOUTHEAST COLORADO...

CITY           SKY/WX    TMP DP  RH WIND       PRES   REMARKS
PUEBLO         CLOUDY    54  50  86 N10       29.77S
LA JUNTA       LGT RAIN  59  53  80 W9        29.76R
LAMAR          CLOUDY    58  54  86 S12       29.72F
SPRINGFIELD      N/A     56  51  84 S6        29.77S
$$



USA.gov is the U.S. government's official web portal to all federal, state and local government web resources and services.